• In Czech Republic
  • List of Countries
  • For 7 days
  • Water Temperature
  • Satellite Maps
  • Weather Map
  • Weather Widgets
  • user-avatar
    Login

    Hourly Weather Quebec

    Today, 22 September, Saturday

    Time Temperature Precipitation Wind Pressure Humidity
    00:00 +2°C° 0.5 mm 11 mps 676 mmHg 88%
    01:00 -2°C° 0.5 mm 12 mps 678 mmHg 87%
    02:00 -3°C° 0.1 mm 12 mps 680 mmHg 85%
    03:00 -3°C° 0.1 mm 12 mps 682 mmHg 83%
    04:00 -3°C° 0.1 mm 12 mps 684 mmHg 82%
    05:00 -4°C° 0.2 mm 11 mps 686 mmHg 82%
    06:00 -4°C° 0.2 mm 11 mps 688 mmHg 82%
    07:00 -4°C° 0.2 mm 11 mps 689 mmHg 82%
    08:00 -4°C° 0.1 mm 10 mps 691 mmHg 76%
    09:00 -4°C° 0.1 mm 10 mps 692 mmHg 70%
    10:00 -4°C° 0.1 mm 10 mps 693 mmHg 65%
    11:00 -4°C° 0.1 mm 10 mps 693 mmHg 63%
    12:00 -4°C° 0.1 mm 9 mps 694 mmHg 62%
    13:00 -3°C° 0.1 mm 9 mps 694 mmHg 60%
    14:00 -4°C° 0.2 mm 9 mps 694 mmHg 65%
    15:00 -4°C° 0.2 mm 8 mps 695 mmHg 69%
    16:00 -4°C° 0.2 mm 8 mps 695 mmHg 74%
    17:00 -4°C° 0.3 mm 7 mps 695 mmHg 78%
    18:00 -4°C° 0.3 mm 5 mps 695 mmHg 82%
    19:00 -4°C° 0.3 mm 4 mps 695 mmHg 86%
    20:00 -4°C° 0.4 mm 4 mps 695 mmHg 86%
    21:00 -5°C° 0.4 mm 4 mps 695 mmHg 86%
    22:00 -5°C° 0.4 mm 4 mps 695 mmHg 86%
    23:00 -6°C° 0.1 mm 3 mps 695 mmHg 87%

    Tomorrow, 23 September, Sunday

    Time Temperature Precipitation Wind Pressure Humidity
    00:00 -7°C° 0.1 mm 3 mps 694 mmHg 88%
    01:00 -8°C° 0.1 mm 3 mps 694 mmHg 88%
    02:00 -8°C° 0 mm 3 mps 695 mmHg 89%
    03:00 -9°C° 0 mm 4 mps 695 mmHg 89%
    04:00 -10°C° 0 mm 4 mps 695 mmHg 90%
    05:00 -10°C° 0 mm 5 mps 696 mmHg 88%
    06:00 -9°C° 0 mm 6 mps 696 mmHg 85%
    07:00 -8°C° 0 mm 6 mps 697 mmHg 83%
    08:00 -7°C° 0.1 mm 7 mps 697 mmHg 78%
    09:00 -6°C° 0.1 mm 8 mps 697 mmHg 73%
    10:00 -6°C° 0.1 mm 8 mps 697 mmHg 68%
    11:00 -6°C° 0.3 mm 9 mps 697 mmHg 70%
    12:00 -7°C° 0.3 mm 10 mps 697 mmHg 73%
    13:00 -7°C° 0.3 mm 10 mps 697 mmHg 76%
    14:00 -5°C° 0.3 mm 10 mps 698 mmHg 73%
    15:00 -5°C° 0.3 mm 9 mps 699 mmHg 70%
    16:00 -5°C° 0.3 mm 9 mps 699 mmHg 68%
    17:00 -6°C° 0.1 mm 8 mps 700 mmHg 73%
    18:00 -5°C° 0.1 mm 6 mps 701 mmHg 78%
    19:00 -6°C° 0.1 mm 5 mps 702 mmHg 83%
    20:00 -7°C° 0 mm 5 mps 703 mmHg 86%
    21:00 -7°C° 0 mm 4 mps 704 mmHg 88%
    22:00 -8°C° 0 mm 4 mps 704 mmHg 90%
    23:00 -7°C° 0 mm 4 mps 705 mmHg 91%

    Day after tomorrow, 24 September, Monday

    Time Temperature Precipitation Wind Pressure Humidity
    00:00 -7°C° 0 mm 4 mps 706 mmHg 91%
    01:00 -7°C° 0 mm 4 mps 706 mmHg 92%
    02:00 -7°C° 0 mm 4 mps 707 mmHg 92%
    03:00 -6°C° 0 mm 3 mps 707 mmHg 92%
    04:00 -6°C° 0 mm 3 mps 708 mmHg 93%
    05:00 -6°C° 0 mm 3 mps 708 mmHg 91%
    06:00 -5°C° 0 mm 4 mps 709 mmHg 90%
    07:00 -5°C° 0 mm 4 mps 709 mmHg 89%
    08:00 -4°C° 0 mm 4 mps 710 mmHg 84%
    09:00 -4°C° 0 mm 4 mps 710 mmHg 79%
    10:00 -3°C° 0 mm 4 mps 710 mmHg 74%
    11:00 -1°C° 0 mm 3 mps 710 mmHg 72%
    12:00 -1°C° 0 mm 3 mps 710 mmHg 70%
    13:00 0°C° 0 mm 3 mps 710 mmHg 68%
    14:00 +1°C° 0 mm 2 mps 710 mmHg 67%
    15:00 +1°C° 0 mm 2 mps 710 mmHg 67%
    16:00 +2°C° 0 mm 1 mps 710 mmHg 66%
    17:00 -1°C° 0 mm 2 mps 709 mmHg 72%
    18:00 -3°C° 0 mm 2 mps 709 mmHg 78%
    19:00 -4°C° 0 mm 2 mps 709 mmHg 84%
    20:00 -5°C° 0 mm 3 mps 708 mmHg 84%
    21:00 -5°C° 0 mm 3 mps 708 mmHg 84%
    22:00 -5°C° 0 mm 3 mps 708 mmHg 84%
    23:00 -4°C° 0 mm 4 mps 708 mmHg 82%

    25 September, Tuesday

    Time Temperature Precipitation Wind Pressure Humidity
    00:00 -5°C° 0 mm 5 mps 707 mmHg 80%
    01:00 -4°C° 0 mm 6 mps 706 mmHg 77%
    02:00 -4°C° 0.1 mm 6 mps 705 mmHg 76%
    03:00 -3°C° 0.1 mm 7 mps 704 mmHg 74%
    04:00 -3°C° 0.1 mm 7 mps 703 mmHg 73%
    05:00 -4°C° 0 mm 8 mps 702 mmHg 70%
    06:00 -2°C° 0 mm 8 mps 701 mmHg 67%
    07:00 -3°C° 0 mm 9 mps 701 mmHg 64%
    08:00 0°C° 0.1 mm 9 mps 700 mmHg 69%
    09:00 +1°C° 0.1 mm 9 mps 699 mmHg 74%
    10:00 +2°C° 0.1 mm 9 mps 698 mmHg 78%
    11:00 +2°C° 0.7 mm 9 mps 697 mmHg 82%
    12:00 +3°C° 0.7 mm 9 mps 696 mmHg 86%
    13:00 +3°C° 0.7 mm 9 mps 695 mmHg 90%
    14:00 +3°C° 0.9 mm 9 mps 694 mmHg 91%
    15:00 +4°C° 0.9 mm 8 mps 694 mmHg 92%
    16:00 +5°C° 0.9 mm 8 mps 693 mmHg 92%
    17:00 +5°C° 0.5 mm 8 mps 692 mmHg 93%
    18:00 +5°C° 0.5 mm 8 mps 692 mmHg 93%
    19:00 +6°C° 0.5 mm 8 mps 691 mmHg 94%
    20:00 +6°C° 1.4 mm 7 mps 691 mmHg 94%
    21:00 +7°C° 1.4 mm 6 mps 691 mmHg 95%
    22:00 +7°C° 1.4 mm 5 mps 691 mmHg 96%
    23:00 +6°C° 0.1 mm 5 mps 691 mmHg 96%

    26 September, Wednesday

    Time Temperature Precipitation Wind Pressure Humidity
    00:00 +5°C° 0.1 mm 5 mps 692 mmHg 96%
    01:00 +4°C° 0.1 mm 4 mps 692 mmHg 96%
    02:00 +3°C° 0 mm 4 mps 692 mmHg 96%
    03:00 +1°C° 0 mm 4 mps 693 mmHg 95%
    04:00 +1°C° 0 mm 4 mps 693 mmHg 95%
    05:00 +1°C° 0 mm 4 mps 694 mmHg 94%
    06:00 +1°C° 0 mm 4 mps 694 mmHg 94%
    07:00 +1°C° 0 mm 4 mps 694 mmHg 93%
    08:00 +1°C° 0 mm 4 mps 695 mmHg 90%
    09:00 +1°C° 0 mm 4 mps 695 mmHg 88%
    10:00 +3°C° 0 mm 4 mps 695 mmHg 85%
    11:00 +3°C° 0.1 mm 4 mps 695 mmHg 84%
    12:00 +3°C° 0.1 mm 4 mps 695 mmHg 82%
    13:00 +3°C° 0.1 mm 4 mps 696 mmHg 81%
    14:00 +3°C° 0 mm 3 mps 696 mmHg 81%
    15:00 +4°C° 0 mm 2 mps 696 mmHg 81%
    16:00 +4°C° 0 mm 2 mps 696 mmHg 82%
    17:00 +4°C° 0 mm 1 mps 695 mmHg 85%
    18:00 +4°C° 0 mm 1 mps 695 mmHg 88%
    19:00 +2°C° 0 mm 0 mps 695 mmHg 91%
    20:00 +3°C° 0 mm 1 mps 694 mmHg 92%
    21:00 +3°C° 0 mm 1 mps 694 mmHg 92%
    22:00 +2°C° 0 mm 1 mps 694 mmHg 92%
    23:00 +1°C° 0.1 mm 2 mps 693 mmHg 93%

    27 September, Thursday

    Time Temperature Precipitation Wind Pressure Humidity
    00:00 +1°C° 0.1 mm 2 mps 693 mmHg 93%
    01:00 +1°C° 0.1 mm 2 mps 692 mmHg 94%
    02:00 +1°C° 0 mm 2 mps 693 mmHg 94%
    03:00 +1°C° 0 mm 2 mps 693 mmHg 95%
    04:00 +1°C° 0 mm 2 mps 694 mmHg 95%
    05:00 +1°C° 0 mm 2 mps 694 mmHg 95%
    06:00 +1°C° 0 mm 2 mps 694 mmHg 94%
    07:00 0°C° 0 mm 3 mps 695 mmHg 94%
    08:00 +1°C° 0 mm 3 mps 696 mmHg 88%
    09:00 +2°C° 0 mm 3 mps 696 mmHg 82%
    10:00 +3°C° 0 mm 3 mps 697 mmHg 77%
    11:00 +4°C° 0 mm 3 mps 697 mmHg 73%
    12:00 +5°C° 0 mm 2 mps 698 mmHg 69%
    13:00 +5°C° 0 mm 2 mps 698 mmHg 65%
    14:00 +5°C° 0 mm 2 mps 698 mmHg 65%
    15:00 +5°C° 0 mm 2 mps 699 mmHg 65%
    16:00 +6°C° 0 mm 1 mps 699 mmHg 64%
    17:00 +5°C° 0 mm 1 mps 700 mmHg 70%
    18:00 +4°C° 0 mm 1 mps 700 mmHg 76%
    19:00 +2°C° 0 mm 2 mps 700 mmHg 82%
    20:00 +1°C° 0 mm 2 mps 700 mmHg 84%
    21:00 -1°C° 0 mm 2 mps 700 mmHg 87%
    22:00 -1°C° 0 mm 3 mps 700 mmHg 89%
    23:00 -1°C° 0 mm 3 mps 700 mmHg 90%
    Show more